Regional Weather Roundup
Issued by NWS

Home | Current Version | Previous Version | Graphics & Text | Print | Product List | Glossary On
Versions: 1 2 3 4 5 6 7 8 9 10 11 12 13 14 15 16 17 18 19 20 21 22 23 24 25 26 27 28 29 30 31 32 33 34 35 36 37 38 39 40 41 42 43 44 45 46 47 48 49 50
000
ASUS43 KBIS 231610
RWRND
NORTH DAKOTA REGIONAL WEATHER ROUNDUP
NATIONAL WEATHER SERVICE EASTERN NORTH DAKOTA/GRAND FORKS ND
1100 AM CDT FRI JUN 23 2017

  NOTE: "FAIR" INDICATES FEW OR NO CLOUDS BELOW 12,000 FEET WITH NO
  SIGNIFICANT WEATHER AND/OR OBSTRUCTIONS TO VISIBILITY.

NDZ001>003-009>011-017-231700-
...NORTHWEST NORTH DAKOTA...

CITY           SKY/WX    TMP DP  RH WIND       PRES   REMARKS
WILLISTON      PTSUNNY   60  37  42 NW20G33   30.13F
MINOT          PTSUNNY   58  38  47 W25G35    30.02S
MINOT AFB      PTSUNNY   59  39  47 NW26      30.01R
$$

NDZ018>021-031>035-040>046-231700-
...SOUTHWEST NORTH DAKOTA...

CITY           SKY/WX    TMP DP  RH WIND       PRES   REMARKS
BISMARCK       FAIR      60  35  39 NW23G39   30.06F
DICKINSON      FAIR      55  30  38 NW28G36   30.12F
GARRISON         N/A     54  39  57 NW24G33   30.05F
HETTINGER      FAIR      59  31  34 NW31G41   30.15F
$$

NDZ004>008-012>016-024-026-027-054-231700-
...NORTHEAST NORTH DAKOTA...

CITY           SKY/WX    TMP DP  RH WIND       PRES   REMARKS
GRAND FORKS    CLOUDY    61  51  70 NW22G31   29.85R
GRAND FORKS AF CLOUDY    60  48  66 NW20G25   29.87R
DEVILS LAKE    CLOUDY    57  44  62 NW22G29   29.93R
$$

NDZ022-023-025-028>030-036>039-047>053-231700-
...SOUTHEAST NORTH DAKOTA...

CITY           SKY/WX    TMP DP  RH WIND       PRES   REMARKS
JAMESTOWN      CLOUDY    59  45  59 NW25G36   29.96R
FARGO          CLOUDY    61  50  67 NW20G26   29.87R
WAHPETON       CLOUDY    61  48  63 NW20G30   29.90R
$$




USA.gov is the U.S. government's official web portal to all federal, state and local government web resources and services.